• In Hungary
  • List of Countries
  • For 7 days
  • Water Temperature
  • Satellite Maps
  • Weather Map
  • News
  • Weather Widgets
  • user-avatar
    Login

    Hourly Weather Stavy

    Today, 17 October, Tuesday

    Time Temperature Precipitation Wind Pressure Humidity
    00:00 +11°C° 0 mm 3 mps 750 mmHg 90%
    01:00 +11°C° 0 mm 4 mps 750 mmHg 92%
    02:00 +11°C° 0 mm 4 mps 750 mmHg 93%
    03:00 +11°C° 0 mm 4 mps 749 mmHg 94%
    04:00 +11°C° 0 mm 4 mps 749 mmHg 94%
    05:00 +11°C° 0 mm 4 mps 749 mmHg 94%
    06:00 +11°C° 0 mm 4 mps 749 mmHg 93%
    07:00 +12°C° 0 mm 4 mps 750 mmHg 91%
    08:00 +12°C° 0 mm 5 mps 750 mmHg 90%
    09:00 +13°C° 0 mm 5 mps 750 mmHg 85%
    10:00 +15°C° 0 mm 5 mps 750 mmHg 80%
    11:00 +16°C° 0 mm 5 mps 751 mmHg 75%
    12:00 +16°C° 0 mm 5 mps 751 mmHg 76%
    13:00 +15°C° 0 mm 4 mps 751 mmHg 76%
    14:00 +15°C° 0 mm 4 mps 751 mmHg 77%
    15:00 +15°C° 0 mm 4 mps 751 mmHg 79%
    16:00 +14°C° 0 mm 3 mps 751 mmHg 81%
    17:00 +14°C° 0 mm 2 mps 751 mmHg 83%
    18:00 +13°C° 0 mm 2 mps 751 mmHg 86%
    19:00 +13°C° 0 mm 2 mps 751 mmHg 89%
    20:00 +12°C° 0 mm 1 mps 752 mmHg 92%
    21:00 +12°C° 0 mm 1 mps 751 mmHg 92%
    22:00 +12°C° 0 mm 1 mps 751 mmHg 93%
    23:00 +11°C° 0 mm 1 mps 751 mmHg 93%

    Tomorrow, 18 October, Wednesday

    Time Temperature Precipitation Wind Pressure Humidity
    00:00 +11°C° 0 mm 1 mps 751 mmHg 93%
    01:00 +10°C° 0 mm 2 mps 751 mmHg 93%
    02:00 +10°C° 0 mm 2 mps 751 mmHg 94%
    03:00 +10°C° 0 mm 2 mps 751 mmHg 94%
    04:00 +10°C° 0 mm 2 mps 751 mmHg 95%
    05:00 +10°C° 0 mm 3 mps 750 mmHg 95%
    06:00 +11°C° 0 mm 3 mps 750 mmHg 94%
    07:00 +11°C° 0 mm 3 mps 750 mmHg 92%
    08:00 +12°C° 0 mm 3 mps 750 mmHg 90%
    09:00 +14°C° 0 mm 4 mps 750 mmHg 83%
    10:00 +17°C° 0 mm 4 mps 750 mmHg 75%
    11:00 +18°C° 0 mm 4 mps 750 mmHg 67%
    12:00 +19°C° 0 mm 4 mps 749 mmHg 63%
    13:00 +20°C° 0 mm 4 mps 749 mmHg 59%
    14:00 +21°C° 0 mm 4 mps 749 mmHg 55%
    15:00 +20°C° 0 mm 3 mps 748 mmHg 60%
    16:00 +19°C° 0 mm 3 mps 748 mmHg 64%
    17:00 +18°C° 0 mm 3 mps 748 mmHg 69%
    18:00 +17°C° 0 mm 3 mps 747 mmHg 71%
    19:00 +16°C° 0 mm 3 mps 747 mmHg 73%
    20:00 +14°C° 0 mm 3 mps 747 mmHg 75%
    21:00 +14°C° 0 mm 3 mps 747 mmHg 76%
    22:00 +14°C° 0 mm 3 mps 747 mmHg 78%
    23:00 +13°C° 0 mm 3 mps 747 mmHg 79%

    Day after tomorrow, 19 October, Thursday

    Time Temperature Precipitation Wind Pressure Humidity
    00:00 +13°C° 0 mm 3 mps 747 mmHg 80%
    01:00 +12°C° 0 mm 3 mps 747 mmHg 81%
    02:00 +13°C° 0 mm 2 mps 747 mmHg 82%
    03:00 +13°C° 0 mm 2 mps 747 mmHg 83%
    04:00 +12°C° 0 mm 2 mps 747 mmHg 83%
    05:00 +12°C° 0 mm 2 mps 747 mmHg 84%
    06:00 +13°C° 0 mm 2 mps 747 mmHg 82%
    07:00 +13°C° 0 mm 2 mps 747 mmHg 80%
    08:00 +14°C° 0 mm 1 mps 747 mmHg 78%
    09:00 +15°C° 0 mm 1 mps 747 mmHg 71%
    10:00 +18°C° 0 mm 1 mps 747 mmHg 64%
    11:00 +19°C° 0 mm 2 mps 747 mmHg 58%
    12:00 +21°C° 0 mm 1 mps 747 mmHg 55%
    13:00 +21°C° 0 mm 1 mps 747 mmHg 52%
    14:00 +22°C° 0 mm 1 mps 747 mmHg 49%
    15:00 +21°C° 0 mm 1 mps 747 mmHg 53%
    16:00 +20°C° 0 mm 1 mps 746 mmHg 57%
    17:00 +19°C° 0 mm 1 mps 746 mmHg 62%
    18:00 +18°C° 0 mm 1 mps 746 mmHg 64%
    19:00 +16°C° 0 mm 1 mps 747 mmHg 66%
    20:00 +16°C° 0 mm 1 mps 747 mmHg 68%
    21:00 +15°C° 0 mm 1 mps 747 mmHg 70%
    22:00 +15°C° 0 mm 1 mps 747 mmHg 72%
    23:00 +14°C° 0 mm 1 mps 747 mmHg 74%

    20 October, Friday

    Time Temperature Precipitation Wind Pressure Humidity
    00:00 +14°C° 0 mm 1 mps 747 mmHg 76%
    01:00 +14°C° 0 mm 1 mps 747 mmHg 78%
    02:00 +13°C° 0 mm 1 mps 747 mmHg 80%
    03:00 +13°C° 0 mm 1 mps 747 mmHg 81%
    04:00 +13°C° 0 mm 1 mps 747 mmHg 82%
    05:00 +12°C° 0 mm 1 mps 746 mmHg 83%
    06:00 +13°C° 0 mm 1 mps 747 mmHg 81%
    07:00 +13°C° 0 mm 1 mps 747 mmHg 79%
    08:00 +14°C° 0 mm 1 mps 747 mmHg 77%
    09:00 +15°C° 0 mm 1 mps 747 mmHg 71%
    10:00 +18°C° 0 mm 1 mps 747 mmHg 65%
    11:00 +20°C° 0 mm 1 mps 747 mmHg 58%
    12:00 +20°C° 0 mm 1 mps 747 mmHg 56%
    13:00 +21°C° 0 mm 1 mps 747 mmHg 53%
    14:00 +22°C° 0 mm 1 mps 747 mmHg 51%
    15:00 +21°C° 0 mm 1 mps 747 mmHg 55%
    16:00 +19°C° 0 mm 1 mps 747 mmHg 60%
    17:00 +18°C° 0 mm 1 mps 746 mmHg 65%
    18:00 +16°C° 0 mm 1 mps 747 mmHg 68%
    19:00 +15°C° 0 mm 0 mps 747 mmHg 70%
    20:00 +14°C° 0 mm 0 mps 747 mmHg 73%
    21:00 +14°C° 0 mm 0 mps 747 mmHg 75%
    22:00 +13°C° 0 mm 0 mps 747 mmHg 77%
    23:00 +13°C° 0 mm 0 mps 747 mmHg 78%

    21 October, Saturday

    Time Temperature Precipitation Wind Pressure Humidity
    00:00 +13°C° 0 mm 0 mps 747 mmHg 80%
    01:00 +13°C° 0 mm 1 mps 747 mmHg 81%
    02:00 +13°C° 0 mm 1 mps 747 mmHg 83%
    03:00 +13°C° 0 mm 1 mps 747 mmHg 85%
    04:00 +12°C° 0 mm 1 mps 747 mmHg 86%
    05:00 +12°C° 0 mm 1 mps 747 mmHg 88%
    06:00 +12°C° 0 mm 1 mps 747 mmHg 87%
    07:00 +12°C° 0 mm 2 mps 747 mmHg 86%
    08:00 +13°C° 0 mm 2 mps 748 mmHg 84%
    09:00 +14°C° 0 mm 2 mps 748 mmHg 78%
    10:00 +16°C° 0 mm 2 mps 747 mmHg 72%
    11:00 +17°C° 0 mm 2 mps 747 mmHg 65%
    12:00 +18°C° 0 mm 2 mps 747 mmHg 62%
    13:00 +18°C° 0 mm 2 mps 747 mmHg 60%
    14:00 +19°C° 0 mm 2 mps 746 mmHg 57%
    15:00 +18°C° 0 mm 2 mps 746 mmHg 61%
    16:00 +17°C° 0 mm 2 mps 746 mmHg 65%
    17:00 +16°C° 0 mm 2 mps 746 mmHg 69%
    18:00 +15°C° 0 mm 2 mps 746 mmHg 71%
    19:00 +15°C° 0 mm 2 mps 746 mmHg 73%
    20:00 +14°C° 0 mm 2 mps 746 mmHg 75%
    21:00 +13°C° 0 mm 3 mps 746 mmHg 75%
    22:00 +13°C° 0 mm 3 mps 745 mmHg 75%
    23:00 +12°C° 0 mm 3 mps 745 mmHg 75%

    22 October, Sunday

    Time Temperature Precipitation Wind Pressure Humidity
    00:00 +12°C° 0 mm 3 mps 745 mmHg 75%
    01:00 +12°C° 0 mm 3 mps 745 mmHg 75%
    02:00 +11°C° 0 mm 3 mps 745 mmHg 75%
    03:00 +11°C° 0 mm 3 mps 745 mmHg 75%
    04:00 +11°C° 0 mm 3 mps 745 mmHg 75%
    05:00 +11°C° 0 mm 3 mps 745 mmHg 75%
    06:00 +11°C° 0 mm 3 mps 745 mmHg 74%
    07:00 +12°C° 0 mm 2 mps 745 mmHg 73%
    08:00 +13°C° 0 mm 2 mps 745 mmHg 72%
    09:00 +15°C° 0 mm 2 mps 745 mmHg 65%
    10:00 +16°C° 0 mm 2 mps 745 mmHg 59%
    11:00 +18°C° 0 mm 3 mps 745 mmHg 53%
    12:00 +19°C° 0 mm 3 mps 745 mmHg 51%
    13:00 +19°C° 0 mm 3 mps 744 mmHg 49%
    14:00 +19°C° 0 mm 3 mps 744 mmHg 47%
    15:00 +18°C° 0 mm 2 mps 744 mmHg 51%
    16:00 +17°C° 0 mm 2 mps 744 mmHg 55%
    17:00 +16°C° 0 mm 1 mps 744 mmHg 59%
    18:00 +16°C° 0 mm 1 mps 744 mmHg 61%
    19:00 +15°C° 0 mm 1 mps 744 mmHg 62%
    20:00 +15°C° 0 mm 1 mps 744 mmHg 64%
    21:00 +14°C° 0 mm 1 mps 744 mmHg 65%
    22:00 +14°C° 0 mm 1 mps 744 mmHg 65%
    23:00 +14°C° 0 mm 2 mps 744 mmHg 66%
    Show more